(88) Thisbe
ephemeris date magn radius delta ra dec elong phase
Today11 May 202513.43.204 AU3.697 AU06h59m+21°00'53.7°14.7°
Opposition6 Mar 202611.63.127 AU2.140 AU10h57m-01°07'172.8°2.3°
(88) Thisbe - 2025-05-11
astro.vanbuitenen.nl


 
-1 year
-1 month
-1 day
Now
+1 day
+1 month
+1 year

The interactive orbit chart above shows the body's path through the solar system and its position at the given date. Green and blue lines are shown perpendicular to the ecliptic plane: Green if the path is above the ecliptic plane, blue if it is below. (Left-click and drag to rotate the view; Right-click and drag to move the view; Use scroll wheel to zoom in our out.)

The orbital elements of Thisbe are:

            e (Eccentricity)                : 0.1645371
            a (Semimajor axis)              : 2.7687422
            i (Inclination)                 : 5.22640
            Ω (Longitude of ascending node) : 276.32535
            ω (Argument of perihelion)      : 36.93816
            M (Mean anomaly)                : 158.72262
            Epoch                           : 2025 May 05

            L (Longitude of perihelion)     : 313.14892
            B (Latitude of perihelion)      : 3.13803
            P (Orbital period in years)     : 4.61            
        

The light curve chart below shows the estimated development of the minor planet's magnitude.


The all-sky chart below shows the path of the minor planet over the same period as the light curve. The current position is marked yellow.





The following chart shows the path of the minor planet in the next few days. The field of view is optimized for (~10x50) binoculars and finderscopes. A more printer-friendly version of the same chart can be found below.




Ephemerides:
Date       Time       RA (2000)    DEC (2000)    delta   radius  elong  phase   PA    magn
2025-05-11 00:00 UT   06 59 26.4   +21 00 28     3.697    3.204   53.7   14.7    97   13.4 
2025-05-11 15:58 UT   07 00 15.2   +20 59 03     3.705    3.204   53.2   14.6    97   13.4 
2025-05-12 00:00 UT   07 00 39.8   +20 58 19     3.709    3.204   53.0   14.6    97   13.4 
2025-05-13 00:00 UT   07 01 53.6   +20 56 08     3.721    3.205   52.3   14.4    97   13.4 
2025-05-14 00:00 UT   07 03 07.7   +20 53 53     3.733    3.205   51.6   14.3    98   13.4 
2025-05-15 00:00 UT   07 04 22.1   +20 51 36     3.745    3.206   51.0   14.2    98   13.5 
2025-05-16 00:00 UT   07 05 36.9   +20 49 17     3.756    3.206   50.3   14.0    98   13.5 
2025-05-17 00:00 UT   07 06 52.1   +20 46 54     3.768    3.206   49.6   13.9    98   13.5 
2025-05-18 00:00 UT   07 08 07.5   +20 44 29     3.779    3.207   49.0   13.8    98   13.5 
2025-05-19 00:00 UT   07 09 23.3   +20 42 01     3.790    3.207   48.3   13.6    98   13.5 
2025-05-20 00:00 UT   07 10 39.4   +20 39 30     3.801    3.208   47.6   13.5    99   13.5 
2025-05-21 00:00 UT   07 11 55.9   +20 36 56     3.812    3.208   47.0   13.3    99   13.5 
2025-05-22 00:00 UT   07 13 12.6   +20 34 19     3.823    3.208   46.3   13.2    99   13.5 
2025-05-23 00:00 UT   07 14 29.6   +20 31 39     3.834    3.209   45.7   13.0    99   13.5 
2025-05-24 00:00 UT   07 15 46.9   +20 28 57     3.844    3.209   45.0   12.9    99   13.5 
2025-05-25 00:00 UT   07 17 04.5   +20 26 11     3.855    3.210   44.4   12.7    99   13.5 
2025-05-26 00:00 UT   07 18 22.4   +20 23 22     3.865    3.210   43.7   12.6   100   13.5 
2025-05-27 00:00 UT   07 19 40.5   +20 20 31     3.875    3.210   43.0   12.4   100   13.5 
2025-05-28 00:00 UT   07 20 58.9   +20 17 36     3.885    3.211   42.4   12.3   100   13.5 
2025-05-29 00:00 UT   07 22 17.5   +20 14 38     3.895    3.211   41.8   12.1   100   13.5 
2025-05-30 00:00 UT   07 23 36.4   +20 11 38     3.905    3.211   41.1   12.0   100   13.5 
2025-05-31 00:00 UT   07 24 55.5   +20 08 34     3.915    3.212   40.5   11.8   100   13.5 
2025-06-01 00:00 UT   07 26 14.8   +20 05 27     3.925    3.212   39.8   11.7   101   13.5 
2025-06-02 00:00 UT   07 27 34.4   +20 02 18     3.934    3.212   39.2   11.5   101   13.5 
2025-06-03 00:00 UT   07 28 54.1   +19 59 05     3.943    3.213   38.5   11.3   101   13.5 
2025-06-04 00:00 UT   07 30 14.0   +19 55 49     3.953    3.213   37.9   11.2   101   13.5 
2025-06-05 00:00 UT   07 31 34.2   +19 52 30     3.962    3.213   37.3   11.0   101   13.5 
2025-06-06 00:00 UT   07 32 54.5   +19 49 08     3.970    3.214   36.6   10.9   102   13.5 
2025-06-07 00:00 UT   07 34 15.0   +19 45 43     3.979    3.214   36.0   10.7   102   13.5 


    Terminology:
            
    delta:  distance between minor planet and earth in AU
    radius: distance between minor planet and sun in AU
    magn:   magnitude (brightness) estimate    
    ra:     right ascension in hours (24h = 360deg)
    dec:    declination in degrees
    elong:  elongation in degrees (angle sun-earth-minor planet)    
    phase:  phase angle in degrees (angle sun-minor planet-earth)        
    AU:     Astronomical Unit (mean distance between earth and sun: 149597870.7 km
    

Orbital elements provided by the MPC (Minor Planet Center).
Calculations by a modified version of AAPlus, a C# implementation of the AA+ project by PJ Naughter from the algorithms presented in the book "Astronomical Algorithms" by Jean Meeus.
NGC2000 dso catalog and star labels from VizieR as provided by the Strasbourg astronomical Data Center.
Tycho2 catalog from the ESO archive.